Regional Weather Roundup
Issued by NWS Portland, ME

Home | Current Version | Previous Version | Text Only | Print | Product List | Glossary On
Versions: 1 2 3 4 5 6 7 8 9 10 11 12 13 14 15 16 17 18 19 20 21 22 23 24 25 26 27 28 29 30 31 32 33 34 35 36 37 38 39 40 41 42 43 44 45 46 47 48 49 50
000
ASUS41 KGYX 061510
RWRGYX
WEATHER ROUNDUP FOR MAINE AND NEW HAMPSHIRE
NATIONAL WEATHER SERVICE GRAY ME
1100 AM EDT FRI MAY 06 2016

MEZ002-005-006-010-012-015-018-020-021-024-026-027-029-061600-
MAINE

CITY           SKY/WX    TMP DP  RH WIND       PRES   REMARKS
PORTLAND       PTSUNNY   56  44  64 E8        29.85R
SANFORD        CLOUDY    54  41  62 N7        29.86R
BAR HARBOR     CLOUDY    50  43  77 N13G21    29.82R
WISCASSET      CLOUDY    54  42  64 VRB5      29.85R
ROCKLAND       CLOUDY    52  43  71 NE8       29.84R
FRYEBURG       CLOUDY    60  42  51 CALM      29.84R
LEWISTONAUBURN MOSUNNY   55  41  58 N8        29.84S
AUGUSTA        SUNNY     56  43  61 NE12      29.84S
WATERVILLE     CLOUDY    55  44  66 N9        29.82R
BANGOR         PTSUNNY   58  42  55 N15       29.84R
GREENVILLE       N/A     51  39  63 MISG      29.82R
MILLINOCKET    CLOUDY    54  39  57 N9G18     29.85
HOULTON        CLOUDY    54  41  61 N10       29.83S
PRESQUE ISLE   MOSUNNY   55  39  54 N12G17    29.86R
FRENCHVILLE    SUNNY     55  34  45 N13G20    29.86R
CARIBOU        SUNNY     56  38  50 N10       29.85R
$$

NHZ002-005-008-009-011-012-014-061600-
NEW HAMPSHIRE

CITY           SKY/WX    TMP DP  RH WIND       PRES   REMARKS
PORTSMOUTH     CLOUDY    55  45  67 NE8       29.84R
ROCHESTER      CLOUDY    57  43  59 VRB5      29.83R
NASHUA         CLOUDY    58  45  62 E7        29.84R
MANCHESTER     PTSUNNY   60  44  55 VRB5      29.82R
CONCORD        CLOUDY    61  43  51 NE8       29.83R
LACONIA        CLOUDY    57  43  58 NE7       29.83R
PLYMOUTH       FAIR      60  42  51 CALM      29.82R
BERLIN         SUNNY     58  39  49 VRB3      29.84R
WHITEFIELD     SUNNY     59  41  51 VRB5      29.83R
JAFFREY        PTSUNNY   55  45  68 NE7       29.81R
KEENE          SUNNY     59  45  58 NE7       29.80S
LEBANON        SUNNY     60  43  53 NE8       29.82R
MT WASHINGTON  MOSUNNY   45  37  76 S5          N/A
$$

VTZ005-007-008-061600-
VERMONT

CITY           SKY/WX    TMP DP  RH WIND       PRES   REMARKS
ST JOHNSBURY     N/A     59  39  47 MISG      29.82R
MONTPELIER     FAIR      57  41  55 NE9       29.87R
BURLINGTON     FAIR      58  39  49 NW16      29.86R
$$

MAZ007-012-024-CTZ003-RIZ002-NYZ038-NYZ072-061600-
SOUTHERN NEW ENGLAND AND NY

CITY           SKY/WX    TMP DP  RH WIND       PRES   REMARKS
BOSTON         CLOUDY    51  45  79 E13       29.86R
WORCESTER      CLOUDY    52  43  71 E10G18    29.81R
NANTUCKET      CLOUDY    52  45  77 NE21G29   29.82R
PROVIDENCE     CLOUDY    54  45  71 NE13      29.82R
HARTFORD       CLOUDY    56  45  66 N18       29.75F
ALBANY         LGT RAIN  55  42  61 NE10      29.80S
NEW YORK CITY  LGT RAIN  50  49  96 E14       29.73R FOG
$$

ANZ081-ANZ082-ANZ150-NHZ014-MEZ023>029-061600-
COASTAL MARINE OBSERVATIONS

STATION/POSITION TIME  TEMP    WIND        PRES    WAVE
                       AIR SEA DIR/SP/G            HT/PER
                 (UTC) (F)     (DEG/KT/KT) (MB)    (FT/S)
MOUNT DESERT ROC 1500   45     340/ 14/ 15 1009.8R
MATINICUS ROCK   1500   45     360/ 14/ 15 1010.1R
ISLE OF SHOALS   1500   47      60/ 12/ 14 1010.9R
CASHES LEDGE BUO 1450   45 44  360/ 17/ 19 1009.7R   7/ 8
GEORGES BANK BUO 1450   45 45              1009.7R  11/11
$$

.............KEY..............
   WCI - WIND CHILL
   TC  - TEMPERATURE IN CELSIUS
   VSB - VISIBILITY IN MILES
   HX  - HEAT INDEX
   FAIR- INDICATES FEW OR NO CLOUDS BELOW 12,000 FT, WITH NO
         SIGNIFICANT WEATHER AND/OR OBSTRUCTIONS TO VISIBILITY.





USA.gov is the U.S. government's official web portal to all federal, state and local government web resources and services.